VLG7TZ LEBL-GCLP

Flight info

Callsign VLG7TZ
Flight time N/A
Altitude 33000
Route LOTOS DCT TORDU DCT DIKUT DCT SOPET DCT VLC DCT SERRA/N0453F350 DCT ASTRO DCT POBOS DCT XEBAR DCT YES DCT MAMIS DCT BAZAS DCT VIBAS DCT MGA DCT BRIKE DCT VJF L82 RUNAX UL82 IBALU UN857 TERTO
Aircraft A321/M-SDFGHILORVWXY/LB1

Departure

Time N/A
Airport Josep Tarradellas Barcelona-El Prat Airport (LEBL)

Arrival

Time 2026-04-30 18:40
Airport Gran Canaria Airport (GCLP)
Time Latitude Longitude Altitude Speed Heading
2026-04-30 14:52 41.29049 2.08113 19 ft 0 kts 335°
2026-04-30 17:39 32.35017 -10.74307 33125 ft 428 kts 225°
2026-04-30 17:42 32.11406 -10.95571 33123 ft 427 kts 225°
2026-04-30 17:43 31.99600 -11.06156 33124 ft 426 kts 225°
2026-04-30 17:44 31.86201 -11.18124 33124 ft 426 kts 225°
2026-04-30 17:47 31.65016 -11.36984 33119 ft 425 kts 225°
2026-04-30 17:48 31.48546 -11.51619 33117 ft 424 kts 225°
2026-04-30 17:50 31.29726 -11.68268 33128 ft 424 kts 225°
2026-04-30 17:52 31.15634 -11.80677 33129 ft 424 kts 225°
2026-04-30 17:54 30.94428 -11.99248 33131 ft 424 kts 224°
2026-04-30 17:56 30.75609 -12.15646 33130 ft 423 kts 224°
2026-04-30 17:58 30.61474 -12.27904 33132 ft 423 kts 224°
2026-04-30 18:00 30.42613 -12.44177 33137 ft 422 kts 224°
2026-04-30 18:01 30.30805 -12.54316 33140 ft 423 kts 224°
2026-04-30 18:02 30.16663 -12.66395 33129 ft 421 kts 224°
2026-04-30 18:04 30.02533 -12.78458 33131 ft 421 kts 224°
2026-04-30 18:06 29.83737 -12.94465 33141 ft 420 kts 223°
2026-04-30 18:08 29.67293 -13.08418 33126 ft 419 kts 223°
2026-04-30 18:10 29.48880 -13.24695 33131 ft 414 kts 229°
2026-04-30 18:11 29.33834 -13.40004 33134 ft 414 kts 227°
2026-04-30 18:13 29.23042 -13.50752 33131 ft 413 kts 227°
2026-04-30 18:14 29.12212 -13.61529 33120 ft 412 kts 227°
2026-04-30 18:15 28.99246 -13.74389 33116 ft 412 kts 227°
2026-04-30 18:16 28.90587 -13.82950 33117 ft 412 kts 227°
2026-04-30 18:17 28.86257 -13.87225 33122 ft 412 kts 227°
2026-04-30 18:18 28.79838 -13.93549 33127 ft 412 kts 227°
2026-04-30 18:18 28.75528 -13.97794 33129 ft 411 kts 227°
2026-04-30 18:19 28.71234 -14.02017 33124 ft 411 kts 226°
2026-04-30 18:19 28.66909 -14.06266 33092 ft 412 kts 226°
2026-04-30 18:19 28.64727 -14.08412 32595 ft 415 kts 226°
2026-04-30 18:20 28.62524 -14.10571 31806 ft 419 kts 226°
2026-04-30 18:20 28.60312 -14.12732 31197 ft 418 kts 226°
2026-04-30 18:20 28.58116 -14.14879 30732 ft 414 kts 225°
2026-04-30 18:20 28.55944 -14.17002 30271 ft 410 kts 225°
2026-04-30 18:21 28.53794 -14.19106 29755 ft 405 kts 225°
2026-04-30 18:21 28.51671 -14.21179 29307 ft 399 kts 225°
2026-04-30 18:21 28.49581 -14.23221 28862 ft 394 kts 225°
2026-04-30 18:21 28.47526 -14.25247 28360 ft 388 kts 227°
2026-04-30 18:22 28.45751 -14.27567 27313 ft 393 kts 236°
2026-04-30 18:22 28.42404 -14.32469 26211 ft 388 kts 236°
2026-04-30 18:22 28.40759 -14.34882 25703 ft 385 kts 236°
2026-04-30 18:23 28.39120 -14.37279 25195 ft 383 kts 236°
2026-04-30 18:23 28.37487 -14.39661 24694 ft 381 kts 236°
2026-04-30 18:23 28.35863 -14.42030 24209 ft 379 kts 236°
2026-04-30 18:23 28.34245 -14.44386 23743 ft 378 kts 236°
2026-04-30 18:24 28.31047 -14.49045 22729 ft 374 kts 236°
2026-04-30 18:24 28.29453 -14.51364 22295 ft 371 kts 236°
2026-04-30 18:24 28.27876 -14.53659 21867 ft 367 kts 236°
2026-04-30 18:25 28.26312 -14.55931 21445 ft 364 kts 236°
2026-04-30 18:25 28.23228 -14.60409 20582 ft 357 kts 235°
2026-04-30 18:25 28.21708 -14.62621 20160 ft 354 kts 235°
2026-04-30 18:26 28.18707 -14.66977 19315 ft 348 kts 235°
2026-04-30 18:26 28.17223 -14.69126 18897 ft 345 kts 235°
2026-04-30 18:26 28.15752 -14.71261 18487 ft 342 kts 235°
2026-04-30 18:27 28.12866 -14.75448 17610 ft 336 kts 234°
2026-04-30 18:27 28.11437 -14.77519 17210 ft 332 kts 234°
2026-04-30 18:28 28.08626 -14.81587 16414 ft 324 kts 234°
2026-04-30 18:28 28.07242 -14.83589 16013 ft 321 kts 234°
2026-04-30 18:28 28.04510 -14.87543 15237 ft 316 kts 234°
2026-04-30 18:29 28.03155 -14.89493 14845 ft 314 kts 234°
2026-04-30 18:29 27.99136 -14.95270 13677 ft 309 kts 233°
2026-04-30 18:30 27.96950 -14.98420 13038 ft 304 kts 233°
2026-04-30 18:30 27.93928 -15.02771 12174 ft 298 kts 233°
2026-04-30 18:31 27.92653 -15.04608 11799 ft 296 kts 233°
2026-04-30 18:31 27.90127 -15.08238 11087 ft 292 kts 233°
2026-04-30 18:32 27.87644 -15.11804 10382 ft 289 kts 232°
2026-04-30 18:32 27.86410 -15.13572 10115 ft 284 kts 232°
2026-04-30 18:32 27.83977 -15.17065 9647 ft 288 kts 232°
2026-04-30 18:33 27.82746 -15.18830 9325 ft 284 kts 232°
2026-04-30 18:33 27.80306 -15.22327 8545 ft 283 kts 232°
2026-04-30 18:33 27.79093 -15.24069 8168 ft 282 kts 232°
2026-04-30 18:34 27.77881 -15.25807 7791 ft 281 kts 232°
2026-04-30 18:34 27.75462 -15.29264 7052 ft 280 kts 232°
2026-04-30 18:34 27.74228 -15.31029 6331 ft 293 kts 232°
2026-04-30 18:35 27.72950 -15.32854 5820 ft 296 kts 232°
2026-04-30 18:35 27.71774 -15.34667 5634 ft 285 kts 243°
2026-04-30 18:35 27.71304 -15.36808 5389 ft 277 kts 271°
2026-04-30 18:36 27.72509 -15.40995 4177 ft 290 kts 294°
2026-04-30 18:36 27.73621 -15.42892 3612 ft 294 kts 317°
2026-04-30 18:36 27.77194 -15.44946 3072 ft 277 kts 347°
2026-04-30 18:37 27.79019 -15.44912 2842 ft 256 kts 14°
2026-04-30 18:37 27.80657 -15.44248 2464 ft 244 kts 22°
2026-04-30 18:37 27.82172 -15.43535 2155 ft 229 kts 22°
2026-04-30 18:37 27.83614 -15.42887 1839 ft 218 kts 21°
2026-04-30 18:38 27.85000 -15.42275 1574 ft 210 kts 21°
2026-04-30 18:38 27.86325 -15.41690 1281 ft 200 kts 21°
2026-04-30 18:38 27.87570 -15.41142 1043 ft 179 kts 22°
2026-04-30 18:38 27.88661 -15.40661 797 ft 161 kts 24°
2026-04-30 18:39 27.89681 -15.40210 585 ft 155 kts 23°
2026-04-30 18:39 27.90668 -15.39774 388 ft 153 kts 24°
2026-04-30 18:39 27.91653 -15.39336 195 ft 152 kts 25°
2026-04-30 18:39 27.92610 -15.38909 71 ft 137 kts 24°
2026-04-30 18:40 27.93357 -15.38584 60 ft 91 kts 21°
2026-04-30 18:40 27.93766 -15.38429 55 ft 30 kts 353°
2026-04-30 18:40 27.93909 -15.38439 66 ft 10 kts 352°
2026-04-30 18:40 27.93969 -15.38446 70 ft 7 kts 352°
2026-04-30 18:41 27.94011 -15.38458 69 ft 5 kts 336°
2026-04-30 18:41 27.94038 -15.38483 67 ft 5 kts 309°
2026-04-30 18:41 27.94052 -15.38514 65 ft 4 kts 292°
2026-04-30 18:41 27.94061 -15.38538 69 ft 3 kts 292°
2026-04-30 18:42 27.94075 -15.38593 74 ft 8 kts 268°
2026-04-30 18:42 27.94004 -15.38656 85 ft 7 kts 201°
2026-04-30 18:42 27.93962 -15.38678 86 ft 6 kts 223°
2026-04-30 18:45 27.93980 -15.38761 85 ft 0 kts 291°